DW9584 Weather Reports


Display with metric or nautical units.
time (UTC)temp
F
wind
direction
speed
MPH
gust
MPH
rain 1hr
in
rain 24hr
in
rain mn
in
humidity
%
barometer
mb
20260506164522 62 176 1.0 5.0 0.05 0.07 0.07 89 1009.2
20260506163018 63 79 1.0 5.0 0.06 0.07 0.07 89 1009.3
20260506161514 62 262 0.0 6.0 0.06 0.06 0.06 89 1009.7
20260506160014 62 254 0.0 3.0 0.04 0.04 0.04 88 1010.3
20260506154508 63 178 0.0 2.0 0.02 0.02 0.02 85 1010.3
20260506153005 63 234 1.0 4.0 0.01 0.01 0.01 82 1010.4
20260506151533 65 223 2.0 8.0 0.00 0.00 0.00 77 1010.2
20260506150029 66 152 1.0 11.0 0.00 0.00 0.00 73 1010.0
20260506144524 67 265 1.0 5.0 0.00 0.00 0.00 72 1010.0
20260506143037 67 292 1.0 6.0 0.00 0.00 0.00 72 1010.1
20260506141518 67 178 2.0 6.0 0.00 0.00 0.00 68 1010.2
20260506140016 68 188 3.0 12.0 0.00 0.00 0.00 66 1010.2
20260506134510 67 170 2.0 10.0 0.00 0.00 0.00 68 1010.1
20260506133026 66 174 3.0 16.0 0.00 0.00 0.00 70 1010.1
20260506131529 66 210 3.0 8.0 0.00 0.00 0.00 70 1010.1
20260506130025 66 156 2.0 7.0 0.00 0.00 0.00 71 1010.4
20260506124521 66 200 2.0 11.0 0.00 0.00 0.00 71 1010.4
20260506123021 66 217 1.0 7.0 0.00 0.00 0.00 74 1010.2
20260506121520 65 241 1.0 5.0 0.00 0.00 0.00 74 1010.2
20260506120018 65 143 0.0 6.0 0.00 0.00 0.00 75 1010.1
20260506114519 63 104 0.0 4.0 0.00 0.00 0.00 78 1010.1
20260506113026 64 80 0.0 4.0 0.00 0.00 0.00 78 1010.2
20260506111527 63 159 1.0 6.0 0.00 0.00 0.00 78 1010.2
20260506110034 63 85 1.0 3.0 0.00 0.00 0.00 78 1010.1
20260506104527 63 81 0.0 3.0 0.00 0.00 0.00 79 1010.0
20260506103024 63 50 0.0 3.0 0.00 0.00 0.00 79 1010.0
20260506101543 62 93 1.0 5.0 0.00 0.00 0.00 80 1010.1
20260506100019 62 34 1.0 2.0 0.00 0.00 0.00 80 1010.0
20260506094528 62 61 0.0 3.0 0.00 0.00 0.00 80 1010.1
20260506093028 63 226 0.0 6.0 0.00 0.00 0.00 79 1010.0
20260506091517 63 210 0.0 3.0 0.00 0.00 0.00 78 1009.9
20260506090009 64 107 1.0 4.0 0.00 0.00 0.00 78 1010.1
20260506084516 64 173 0.0 5.0 0.00 0.00 0.00 77 1010.1
20260506083026 64 359 1.0 6.0 0.00 0.00 0.00 77 1010.1
20260506081524 64 44 0.0 2.0 0.00 0.00 0.00 78 1010.2
20260506073016 64 202 0.0 2.0 0.00 0.00 0.00 78 1010.3
20260506071517 65 1 0.0 3.0 0.00 0.00 0.00 76 1010.3
20260506061526 65 54 0.0 2.0 0.00 0.00 0.00 76 1010.5
20260506044528 67 201 0.0 4.0 0.00 0.00 0.00 69 1011.1
20260506043028 66 122 0.0 4.0 0.00 0.00 0.00 69 1011.1
20260506041531 66 129 0.0 4.0 0.00 0.00 0.00 69 1011.2
20260506040028 66 169 1.0 3.0 0.00 0.00 0.00 68 1011.1
20260506034526 67 276 0.0 3.0 0.00 0.00 0.00 67 1011.1
20260506033027 67 231 0.0 2.0 0.00 0.00 0.00 67 1010.9
20260506031523 67 318 0.0 3.0 0.00 0.00 0.00 66 1011.0
20260506030023 67 204 0.0 3.0 0.00 0.00 0.00 65 1011.1
20260506024527 67 174 1.0 4.0 0.00 0.00 0.00 65 1011.1
20260506023025 67 348 0.0 2.0 0.00 0.00 0.00 65 1011.1
20260506021528 68 329 0.0 2.0 0.00 0.00 0.00 63 1011.1
20260506020026 68 124 0.0 4.0 0.00 0.00 0.00 61 1011.0
20260506014532 69 217 0.0 2.0 0.00 0.00 0.00 58 1010.9
20260506013028 70 276 0.0 3.0 0.00 0.00 0.00 55 1010.7
20260506011521 71 123 0.0 2.0 0.00 0.00 0.00 51 1010.5
20260506010028 72 248 0.0 2.0 0.00 0.00 0.00 50 1010.3
20260506004537 72 1 0.0 3.0 0.00 0.00 0.00 48 1010.1
20260506003031 74 182 2.0 6.0 0.00 0.00 0.00 46 1010.1
20260506001514 74 248 1.0 4.0 0.00 0.00 0.00 46 1009.9
20260506000016 74 262 0.0 3.0 0.00 0.00 0.00 46 1009.6
20260505234514 75 122 2.0 9.0 0.00 0.00 0.00 45 1009.6
20260505233027 76 185 1.0 5.0 0.00 0.00 0.00 43 1009.5
20260505231525 76 103 0.0 2.0 0.00 0.00 0.00 45 1009.4
20260505230026 77 262 1.0 6.0 0.00 0.00 0.00 43 1009.3
20260505224532 77 67 1.0 7.0 0.00 0.00 0.00 43 1009.3
20260505223028 77 227 0.0 9.0 0.00 0.00 0.00 42 1009.3
20260505221516 79 360 1.0 13.0 0.00 0.00 0.00 41 1009.4
20260505220025 79 228 3.0 13.0 0.00 0.00 0.00 37 1009.3
20260505214547 80 269 2.0 9.0 0.00 0.00 0.00 37 1009.2
20260505213043 80 220 3.0 10.0 0.00 0.00 0.00 35 1009.2
20260505211526 80 117 1.0 11.0 0.00 0.00 0.00 35 1009.1
20260505210029 80 150 4.0 14.0 0.00 0.00 0.00 34 1009.1
20260505204530 81 293 2.0 13.0 0.00 0.00 0.00 34 1009.2
20260505203022 81 68 2.0 15.0 0.00 0.00 0.00 33 1009.2
20260505201523 82 229 3.0 13.0 0.00 0.00 0.00 32 1009.2
20260505200017 81 291 4.0 14.0 0.00 0.00 0.00 31 1009.1
20260505194527 82 180 3.0 17.0 0.00 0.00 0.00 33 1009.1
20260505193040 81 193 1.0 10.0 0.00 0.00 0.00 34 1009.3
20260505191527 81 211 3.0 19.0 0.00 0.00 0.00 36 1009.4
20260505190032 81 241 2.0 12.0 0.00 0.00 0.00 35 1009.6
20260505184525 81 215 3.0 12.0 0.00 0.00 0.00 36 1009.8
20260505183036 81 262 4.0 9.0 0.00 0.00 0.00 37 1010.1
20260505181521 81 169 3.0 14.0 0.00 0.00 0.00 41 1010.2
20260505180031 80 265 2.0 9.0 0.00 0.00 0.00 42 1010.4
20260505174531 80 148 2.0 12.0 0.00 0.00 0.00 40 1010.8
20260505173035 80 188 2.0 9.0 0.00 0.00 0.00 42 1010.9
20260505171533 79 178 2.0 6.0 0.00 0.00 0.00 44 1011.0
20260505170026 79 304 2.0 7.0 0.00 0.00 0.00 44 1011.1